Location: Cassano d�Adda
(45.5333°N, 9.5167°E)
Time: 02:54:43
(UTC+00:00)

S3M - Pass Details

Date: 08 December 2019
Orbit: 948 x 1005 km, 83.0° (Epoch: 28 January)

Event Time Altitude Azimuth Distance (km) Brightness Sun altitude
Rises 18:19:36 0° 352° (N) 3,693 7.1 -27.3°
Reaches altitude 10° 18:22:08 10° 354° (N) 2,733 6.3 -27.7°
Enters shadow 18:27:18 61° 11° (NNE) 1,088 4.1 -28.6°
Exits shadow 18:37:01 - 170° (S) 3,614 6.9 -30.3°
Sets 18:37:01 0° 170° (S) 3,615 6.9 -30.3°
